Location: Bermeries
(50.2863°N, 3.7551°E)
Time: 12:18:40
(UTC+00:00)

Cosmos 468 Rocket - Pass Details

Date: 23 May 2024
Orbit: 741 x 777 km, 74.0° (Epoch: 14 June)

Event Time Altitude Azimuth Distance (km) Brightness Sun altitude
Rises 00:39:18 0° 334° (NNW) 3,271 8.1 -17.9°
Reaches altitude 10° 00:41:42 10° 333° (NNW) 2,337 7.2 -17.8°
Maximum altitude 00:47:00 73° 249° (WSW) 814 4.0 -17.6°
Enters shadow 00:49:50 28° 171° (S) 1,430 4.9 -17.5°
